Zurück zum Katalog

CZ-4 DEB

AktivSSO
NORAD 35329·DEBRIS·🇨🇳 China

Gestartet Oct 14, 1999 von Taiyuan Satellite Launch Center

Loading…

Nächste Überflüge (nächste 24 Stunden)

TLE

AktuellSource: Space-Track

Epoche: Sep 14, 2026, 03:37 UTC

1 35329U 99057SH  26257.15083656  .00000154  00000-0  71812-4 0  9991
2 35329  98.4136  18.6202 0131283 199.8186 284.9008 14.28547351258415

Verfolge CZ-4 DEB in Echtzeit mit AllMySat

Download on the App Store